Regional Weather Roundup
Issued by NWS Jackson, KY

Home | Current Version | Previous Version | Text Only | Print | Product List | Glossary Off
Versions: 1 2 3 4 5 6 7 8 9 10 11 12 13 14 15 16 17 18 19 20 21 22 23 24 25 26 27 28 29 30 31 32 33 34 35 36 37 38 39 40 41 42 43 44 45 46 47 48 49 50

000
ASUS43 KJKL 080410
RWRJKL

EAST KENTUCKY HOURLY WEATHER ROUNDUP
NATIONAL WEATHER SERVICE JACKSON KY
1100 PM EST WED DEC 07 2016

NOTE: "FAIR" INDICATES FEW OR NO CLOUDS BELOW 12,000 FEET WITH
NO SIGNIFICANT WEATHER AND/OR OBSTRUCTIONS TO VISIBILITY.

* THESE REPORTS ARE NOT UNDER NWS QUALITY CONTROL AND MAY NOT
  REPORT WEATHER SUCH AS PRECIPITATION AND FOG.

KYZ079-080-083-085-087-088-110-112-115-119-120-080500
...EASTERN KENTUCKY...

CITY           SKY/WX    TMP DP  RH WIND       PRES   REMARKS
JACKSON        CLOUDY    36  23  59 NW6       30.13R WCI  31
LONDON         PTCLDY    35  24  64 CALM      30.15R
SOMERSET*      CLOUDY    34  27  75 CALM      30.20R
MONTICELLO*    PTCLDY    34  27  75 N8        30.20R WCI  27
WILLIAMSBURG*  PTCLDY    32  32 100 CALM      30.16R
MIDDLESBORO*   CLOUDY    38  34  86 CALM      30.14S
HARLAN APT*    CLOUDY    36  32  87 CALM      30.12S
PIKE CO APT*     N/A     34  29  82 NW3       30.11S
MOREHEAD APT*  CLOUDY    36  23  60 W6        30.17R WCI  31
ASHLAND*       CLOUDY    39  27  60 CALM      30.12F
$$

KYZ035-036-041-042-044-050-067-078-099-080500
...CENTRAL KENTUCKY...

CITY           SKY/WX    TMP DP  RH WIND       PRES   REMARKS
MT STERLING*   CLOUDY    34  27  75 NW5       30.18R WCI  30
FLEMING/MASON* CLOUDY    34  24  68 W6        30.17R WCI  29
DANVILLE*      CLOUDY    32  27  80 NW3       30.19S
LEXINGTON      CLOUDY    36  23  59 NW5       30.17R WCI  32
FRANKFORT      CLOUDY    36  22  56 W3        30.17S
LOUISVILLE     CLOUDY    36  20  52 NW9       30.20S WCI  29
LEBANON*       CLOUDY    36  23  60 NW3       30.19S
GLASGOW*       PTCLDY    35  24  65 N6        30.20S WCI  30
BOWLING GREEN  CLOUDY    37  22  54 VRB6      30.22S WCI  32
$$

KYZ091>093-OHZ055-061-077-WVZ005-015-034-035-042-080500
...SOUTHERN OHIO/WEST VIRGINIA...

CITY           SKY/WX    TMP DP  RH WIND       PRES   REMARKS
COVINGTON      CLOUDY    34  24  67 W10       30.16R WCI  26
COLUMBUS       CLOUDY    34  25  69 W8        30.11F WCI  27
DAYTON         CLOUDY    32  23  69 W16       30.13S WCI  21
WILMINGTON     CLOUDY    33  24  69 W12       30.13S WCI  24
HUNTINGTON     MOCLDY    38  25  59 NW3       30.12F
CHARLESTON     MOCLDY    31  28  89 CALM      30.13R
PINEVILLE*       N/A     29  26  90 MISG      30.14S
BECKLEY        CLEAR     28  21  75 CALM      30.05F
BLUEFIELD      CLOUDY    31  28  89 W7        30.05F WCI  24
LOGAN CO APT*    N/A     34  28  80 CALM      30.09S
$$

VAZ002-007-008-TNZ017-027-036-066-071-080500
...SOUTHWEST VIRGINIA/EAST TENNESSEE...

CITY           SKY/WX    TMP DP  RH WIND       PRES   REMARKS
WISE*          MOCLDY    34  27  75 CALM      30.08S
JONESVILLE*    CLOUDY    37  36  93 CALM      30.13S
ABINGDON*      PTCLDY    37  33  85 CALM      30.06S
BRISTOL        CLOUDY    39  32  76 CALM      30.08S
MORRISTOWN*    CLOUDY    45  36  70 CALM      30.10R
SEVIERVILLE*   CLOUDY    43  34  70 W6        30.12R
KNOXVILLE      CLOUDY    44  33  65 CALM      30.12R
OAK RIDGE      CLOUDY    43  36  76 CALM      30.14R
CROSSVILLE     CLOUDY    38  31  76 NW5       30.14R WCI  34
NASHVILLE      CLOUDY    40  25  55 N9        30.21S WCI  34
$$

...KEY TO REMARKS...
VSB - VISIBILITY IN MILES
WCI - WIND CHILL INDEX
HX  - HEAT INDEX

$$



USA.gov is the U.S. government's official web portal to all federal, state and local government web resources and services.